sat.trackr.live / text

‹ back to catalog

2024-226B

NORAD 62186 · 2024-226B

PAYLOAD ACTIVE UNKNOWN

§ Identity

Operator
Country
PRC
Launch date
2024-11-30
Launch site
WSC
Launch vehicle
Mass (kg)
RCS (m²)

External: N2YO · Heavens-Above · Gunter

§ Orbital elements

Epoch: 2026-09-22T17:18:33.675840Z

Period
107.34 min
Inclination
50.0057°
Eccentricity
0.0011584
Mean motion
13.41508788 rev/d
Perigee alt
1,095.0 km
Apogee alt
1,112.3 km
Semi-major
7,481.8 km
B*
8.3982e-5
RAAN
331.5102°
Arg perigee
9.9837°
Mean anomaly
350.1269°
Rev number
8,880

§ Raw data

2024-226B1 62186U 24226B   26265.72122310 -.00000081  00000+0  83982-4 0  99912 62186  50.0057 331.5102 0011584   9.9837 350.1269 13.41508788 88807

JSON: /api/v1/satellites/62186 · /tle

For live sub-satellite position, see the globe view (requires WebGL).

§ Visibility from observer

Set your observer location to see the next 7 days of passes ≥ 10°. The values pass through the URL so the page stays shareable.

No JS? Fill the form by hand. The geolocation button needs JavaScript.